[[{"header":{"parameterUnit":"m.s-1","parameterCategory":2,"la1":30.2991,"la2":30.254,"lo1":-89.0895,"lo2":-89.0444,"dy":0.0017,"dx":0.0017,"nx":28,"ny":28,"refTime":"2024-08-15T21:00:00:Z","depth":"0","parameterNumber":2,"parameterNumberName":"U-component_of_CURRENTS"},"data":[0,0,0,0,0,0,0,0,0,0,0,0,0,0,0,0,0,0,0,0,0,0,0,0,0,0,0,0,0,0,0,0,0,0,0,0,0,0,0,0,0,0,0,0,0,0,0,0,0,0,0,0,0,0,0,0,0,0,-0.1686,-0.1685,0,-0.1556,-0.1554,-0.1551,-0.1464,-0.1465,-0.1465,-0.1465,-0.1275,-0.127,-0.1265,0,0,0,0,0,0,0,0,0,0,0,0,0,-0.152,-0.1525,-0.1686,-0.1685,-0.1684,-0.1556,-0.1554,-0.1551,-0.1464,-0.1465,-0.1465,-0.1465,-0.1277,-0.1271,-0.1265,0,0,0,0,0,0,0,0,0,0,0,0,0,-0.1504,-0.1526,-0.1686,-0.1632,-0.1627,-0.1557,-0.1553,-0.155,-0.1464,-0.1465,-0.1465,-0.1465,-0.1279,-0.1271,-0.1264,-0.1208,0,0,-0.124,-0.1236,0,0,0,0,0,0,0,0,-0.1505,-0.1509,-0.1641,-0.1636,-0.163,-0.1535,-0.1426,-0.1436,-0.1464,-0.1516,-0.1465,-0.1466,-0.1362,-0.1347,-0.131,-0.1199,-0.1191,-0.1239,-0.1234,-0.1231,-0.1228,0,0,0,0,0,0,0,-0.1507,-0.1512,-0.1625,-0.164,-0.1633,-0.1499,-0.1499,-0.1425,-0.1431,-0.1512,-0.1508,-0.1507,-0.1357,-0.1318,-0.1305,-0.1188,-0.1239,-0.1232,-0.1227,-0.1224,-0.1203,-0.1207,0,0,0,0,0,0,-0.156,-0.1516,-0.1629,-0.1622,-0.1577,-0.1504,-0.1503,-0.1557,-0.1433,-0.1417,-0.1507,-0.1504,-0.1331,-0.1314,-0.1298,-0.136,-0.1231,-0.1223,-0.1219,-0.1199,-0.1204,-0.1208,0,0,0,0,0,0,-0.1557,-0.1573,-0.1635,-0.1568,-0.1568,-0.151,-0.1569,-0.1555,-0.1523,-0.1432,-0.1413,-0.1492,-0.1331,-0.1309,-0.1261,-0.1347,-0.122,-0.1213,-0.1194,-0.12,-0.1206,-0.1396,0,0,0,0,0,0,-0.1554,-0.1574,-0.1606,-0.1575,-0.1575,-0.1614,-0.1569,-0.1552,-0.1527,-0.1521,-0.1412,-0.1395,-0.133,-0.1274,-0.1254,-0.1333,-0.1206,-0.1188,-0.1197,-0.1204,-0.1384,-0.1408,-0.1428,0,0,0,0,0,-0.1549,-0.1597,-0.161,-0.1622,-0.1632,-0.1616,-0.1602,-0.155,-0.1526,-0.152,-0.146,-0.1398,-0.1312,-0.1269,-0.1244,-0.1324,-0.1185,-0.1194,-0.1203,-0.1375,-0.1403,-0.1427,0,0,0,0,0,0,-0.1508,-0.1593,-0.1606,-0.167,-0.1658,-0.1605,-0.1588,-0.1559,-0.1501,-0.1491,-0.1404,-0.1383,-0.1386,-0.1326,-0.1281,-0.1351,-0.1257,-0.1262,-0.1396,-0.1422,-0.1443,-0.1436,-0.12,0,0,0,0,0,-0.153,-0.1609,-0.1631,-0.1674,-0.1682,-0.1637,-0.1616,-0.1591,-0.1546,-0.152,-0.1457,-0.1414,-0.1404,-0.1386,-0.1344,-0.1345,-0.128,-0.14,-0.1422,-0.1441,-0.1425,-0.143,-0.145,-0.1239,-0.1239,-0.1239,0,0,-0.1516,-0.1578,-0.1612,-0.1672,-0.1655,-0.1667,-0.1623,-0.1609,-0.1627,-0.1507,-0.1499,-0.1463,-0.1419,-0.1444,-0.1445,-0.1403,-0.1469,-0.1453,-0.1469,-0.1441,-0.1442,-0.1462,-0.1479,-0.1245,-0.1244,-0.1243,0,0,-0.1527,-0.1597,-0.166,-0.1672,-0.1688,-0.1673,-0.1683,-0.1654,-0.1658,-0.1639,-0.1604,-0.1621,-0.1549,-0.1576,-0.1574,-0.1687,-0.1577,-0.1692,-0.1795,-0.1803,-0.1819,-0.1832,-0.1776,-0.1782,-0.1713,-0.1714,-0.1714,0,-0.1496,-0.1605,-0.1654,-0.1703,-0.172,-0.1693,-0.1724,-0.1723,-0.168,-0.1705,-0.1662,-0.1655,-0.1626,-0.1708,-0.1767,-0.1739,-0.1683,-0.1696,-0.1829,-0.1841,-0.1851,-0.1789,-0.1794,-0.1724,-0.1723,-0.1722,-0.1721,0,-0.1558,-0.1624,-0.1651,-0.1741,-0.176,-0.1774,-0.181,-0.1828,-0.1824,-0.1819,-0.1877,-0.1847,-0.1845,-0.1888,-0.185,-0.1954,-0.1869,-0.1847,-0.1754,-0.1883,-0.181,-0.1812,-0.1739,-0.1735,-0.1732,-0.173,0,0,-0.1538,-0.1674,-0.168,-0.1732,-0.1789,-0.181,-0.1883,-0.1944,-0.1983,-0.1983,-0.2039,-0.2091,-0.2062,-0.2062,-0.2058,-0.2089,-0.2138,-0.2003,-0.1999,-0.1931,-0.2093,-0.1985,-0.1975,-0.2126,-0.2128,-0.2129,-0.2011,0,-0.1559,-0.1671,-0.1741,-0.181,-0.1862,-0.1906,-0.1973,-0.2027,-0.2051,-0.2089,-0.2139,-0.2152,-0.2139,-0.2138,-0.2183,-0.2126,-0.215,-0.2168,-0.1989,-0.1983,-0.186,-0.1978,-0.1855,-0.1735,-0.2011,-0.2011,-0.2011,0,-0.1603,-0.1678,-0.1769,-0.1887,-0.1915,-0.1948,-0.2062,-0.211,-0.2185,-0.2206,-0.225,-0.2231,-0.2293,-0.2251,-0.2238,-0.2235,-0.2181,-0.2144,-0.2138,-0.1962,-0.1879,-0.1653,-0.1726,-0.171,-0.2012,-0.2012,-0.2012,0,-0.1587,-0.1703,-0.1787,-0.182,-0.1934,-0.1996,-0.2046,-0.2134,-0.2183,-0.2252,-0.2252,-0.2312,-0.2289,-0.228,-0.2197,-0.2208,-0.2134,-0.2139,-0.1998,-0.1986,-0.1807,-0.1777,-0.1825,-0.2143,-0.2143,-0.2143,-0.2144,0,-0.1607,-0.1668,-0.1779,-0.1817,-0.1902,-0.1987,-0.2065,-0.2132,-0.2198,-0.2224,-0.228,-0.2278,-0.2288,-0.224,-0.22,-0.2074,-0.2131,-0.2013,-0.1966,-0.187,-0.1849,-0.1761,-0.1796,-0.2139,-0.214,-0.2141,-0.2141,0,-0.159,-0.1659,-0.1748,-0.1865,-0.1895,-0.1951,-0.2049,-0.209,-0.2153,-0.2182,-0.2193,-0.2223,-0.2149,-0.2131,-0.207,-0.2028,-0.191,-0.1901,-0.1753,-0.1693,-0.1563,-0.1612,-0.1584,-0.1539,-0.1737,-0.1734,-0.1732,0,-0.1608,-0.1647,-0.1757,-0.1776,-0.1823,-0.1903,-0.1943,-0.2049,-0.2078,-0.2126,-0.2121,-0.2078,-0.2014,-0.1881,-0.18,-0.1696,-0.1756,-0.1548,-0.1591,-0.1545,-0.1566,-0.1626,-0.1596,-0.1419,-0.1414,-0.141,-0.1407,0,-0.1605,-0.1632,-0.168,-0.1716,-0.1757,-0.1816,-0.1875,-0.1898,-0.1989,-0.1994,-0.1949,-0.1897,-0.1773,-0.16,-0.1484,-0.1432,-0.1513,-0.146,-0.1472,-0.1374,-0.1383,-0.1317,-0.1473,-0.137,-0.1374,-0.1377,-0.1379,-0.138,-0.1564,-0.1579,-0.1601,-0.1629,-0.1661,-0.1671,-0.1669,-0.1707,-0.1707,-0.1645,-0.1715,-0.157,-0.1478,-0.1281,-0.1217,-0.1092,-0.122,-0.108,-0.115,-0.1221,-0.1176,-0.1226,-0.1046,-0.1048,-0.1049,-0.1051,-0.1052,0,-0.1473,-0.1482,-0.1505,-0.1504,-0.1483,-0.1544,-0.1566,-0.151,-0.1428,-0.1389,-0.1305,-0.1177,-0.1025,-0.0974,-0.0857,-0.0805,-0.0821,-0.0821,-0.09,-0.0891,-0.0956,-0.0939,-0.0657,-0.0657,-0.0657,-0.0657,-0.0657,-0.0657,-0.1414,-0.1381,-0.139,-0.1301,-0.1299,-0.122,-0.1201,-0.1112,-0.1053,-0.0863,-0.076,-0.0673,-0.0742,-0.0838,-0.0759,-0.0712,-0.0752,-0.0715,-0.0796,-0.0863,-0.0894,-0.0923,-0.0917,-0.0635,-0.0635,-0.0657,-0.0658,-0.0658]},{"header":{"parameterUnit":"m.s-1","parameterCategory":2,"la1":30.2991,"la2":30.254,"lo1":-89.0895,"lo2":-89.0444,"dy":0.0017,"dx":0.0017,"nx":28,"ny":28,"refTime":"2024-08-15T21:00:00:Z","depth":"0","parameterNumber":3,"parameterNumberName":"V-component_of_CURRENTS"},"data":[0,0,0,0,0,0,0,0,0,0,0,0,0,0,0,0,0,0,0,0,0,0,0,0,0,0,0,0,0,0,0,0,0,0,0,0,0,0,0,0,0,0,0,0,0,0,0,0,0,0,0,0,0,0,0,0,0,0,0.0538,0.0542,0,0.0883,0.0886,0.0889,0.1001,0.1,0.0999,0.0998,0.1087,0.109,0.1093,0,0,0,0,0,0,0,0,0,0,0,0,0,0.0259,0.0261,0.0537,0.0542,0.0547,0.0882,0.0886,0.089,0.1001,0.1,0.0999,0.0998,0.1086,0.109,0.1093,0,0,0,0,0,0,0,0,0,0,0,0,0,0.0462,0.0262,0.0537,0.0648,0.0662,0.0881,0.0886,0.0891,0.1001,0.1,0.0999,0.0997,0.1084,0.1089,0.1094,0.1153,0,0,0.1109,0.1111,0,0,0,0,0,0,0,0,0.045,0.0471,0.0627,0.0641,0.0657,0.0903,0.0822,0.0968,0.1002,0.0866,0.0998,0.0997,0.1007,0.1018,0.1081,0.1157,0.116,0.1109,0.1112,0.1114,0.1116,0,0,0,0,0,0,0,0.0436,0.0459,0.0668,0.0632,0.0651,0.0779,0.0802,0.0852,0.093,0.0877,0.0888,0.0937,0.1012,0.1076,0.1083,0.1162,0.1109,0.1113,0.1116,0.1118,0.1164,0.1162,0,0,0,0,0,0,0.0393,0.0444,0.0657,0.0679,0.0555,0.0784,0.0811,0.082,0.0936,0.0956,0.0938,0.0941,0.1068,0.1077,0.1086,0.1054,0.1114,0.1119,0.1122,0.1165,0.1163,0.1161,0,0,0,0,0,0,0.0385,0.0407,0.0643,0.0577,0.0617,0.0789,0.08,0.0828,0.0889,0.0986,0.0999,0.097,0.1067,0.1079,0.1105,0.1061,0.1121,0.1125,0.1167,0.1165,0.1162,0.1056,0,0,0,0,0,0,0.0375,0.0401,0.039,0.0572,0.0619,0.0763,0.0803,0.0836,0.0925,0.0932,0.1018,0.1026,0.1067,0.1098,0.111,0.1069,0.1129,0.1169,0.1166,0.1163,0.1062,0.1051,0.1041,0,0,0,0,0,0.0363,0.0366,0.0386,0.0413,0.0597,0.0765,0.08,0.0916,0.0928,0.0962,0.0996,0.1023,0.1084,0.1102,0.1116,0.1075,0.1171,0.1167,0.1163,0.1067,0.1053,0.1041,0,0,0,0,0,0,0.0252,0.0384,0.0409,0.0451,0.0588,0.0786,0.0844,0.0911,0.0978,0.0968,0.1027,0.1038,0.1036,0.1076,0.1093,0.1075,0.1122,0.1121,0.1044,0.1031,0.1021,0.0989,0.1133,0,0,0,0,0,0.0217,0.0234,0.0403,0.0432,0.0502,0.0663,0.0743,0.0823,0.0919,0.0951,0.0999,0.1027,0.1038,0.105,0.108,0.1092,0.112,0.1065,0.1055,0.1045,0.1027,0.1078,0.1071,0.1149,0.1149,0.1149,0,0,0.0186,0.0258,0.027,0.0408,0.0524,0.06,0.0706,0.083,0.0847,0.0943,0.0955,0.1,0.1033,0.1032,0.1033,0.1057,0.1025,0.104,0.1032,0.1019,0.1073,0.1066,0.106,0.1146,0.1146,0.1147,0,0,0.0167,0.0197,0.0229,0.0325,0.0488,0.0567,0.0591,0.0769,0.0801,0.0845,0.0884,0.0905,0.0951,0.0962,0.0968,0.0919,0.0968,0.0921,0.0845,0.0894,0.0889,0.0885,0.0858,0.0852,0.0915,0.0915,0.0915,0,0.0122,0.0168,0.0272,0.0341,0.039,0.053,0.0575,0.0637,0.0779,0.0786,0.0817,0.0875,0.0905,0.0888,0.0858,0.0892,0.0915,0.0892,0.0882,0.0878,0.0876,0.0851,0.0846,0.0909,0.091,0.091,0.0911,0,0.0145,0.0179,0.0217,0.0292,0.0351,0.0425,0.0515,0.0544,0.0576,0.0644,0.0659,0.073,0.0762,0.0765,0.0791,0.0774,0.079,0.0865,0.0916,0.0862,0.0837,0.0834,0.0901,0.0903,0.0905,0.0906,0,0,0.0043,0.0195,0.0201,0.0215,0.0322,0.0371,0.036,0.0409,0.0405,0.0493,0.0497,0.0514,0.0589,0.0599,0.0657,0.0691,0.0668,0.0758,0.0763,0.0731,0.0729,0.0714,0.0709,0.0763,0.0763,0.0763,0.0701,0,0.0026,0.0103,0.0166,0.0174,0.0215,0.0271,0.0246,0.0285,0.0331,0.0368,0.0432,0.047,0.0514,0.0547,0.0579,0.0671,0.0664,0.0674,0.0786,0.0787,0.0784,0.0708,0.0779,0.073,0.0698,0.0698,0.0697,0,0.0019,0.006,0.0093,0.0102,0.012,0.0117,0.0081,0.0089,0.0154,0.02,0.026,0.0357,0.039,0.0468,0.0542,0.0556,0.0603,0.0669,0.0671,0.0695,0.0768,0.079,0.0726,0.0883,0.0693,0.0694,0.0694,0,-0.0095,-0.0023,-0.0027,-0.0007,0.0048,0.0017,0.0002,0.0042,0.004,0.0117,0.0151,0.0241,0.0284,0.0385,0.0474,0.053,0.0562,0.0671,0.0677,0.0675,0.0772,0.0778,0.0879,0.0696,0.0696,0.0696,0.0696,0,-0.0146,-0.0156,-0.0077,-0.0064,-0.013,-0.0076,-0.0127,-0.0114,-0.0062,-0.0065,0.0066,0.0082,0.0276,0.033,0.0431,0.0503,0.0514,0.0626,0.0662,0.0729,0.0732,0.0906,0.0974,0.0694,0.0694,0.0695,0.0695,0,-0.0232,-0.0165,-0.0175,-0.0144,-0.0154,-0.0208,-0.022,-0.0236,-0.0184,-0.0178,-0.0156,-0.0044,0.004,0.0184,0.033,0.0422,0.0609,0.0529,0.0543,0.0583,0.0801,0.0859,0.0925,0.1028,0.0573,0.0572,0.0572,0,-0.0257,-0.0248,-0.0245,-0.0271,-0.0253,-0.0306,-0.0334,-0.0306,-0.0311,-0.0276,-0.0283,-0.0193,-0.0134,0.0036,0.0247,0.0404,0.0545,0.0536,0.067,0.0782,0.0876,0.0909,0.0996,0.0732,0.0733,0.0734,0.0734,0,-0.0313,-0.0303,-0.0305,-0.0348,-0.0387,-0.044,-0.0474,-0.0499,-0.047,-0.046,-0.0461,-0.0405,-0.0207,0.0034,0.0246,0.0362,0.0687,0.0554,0.0712,0.1016,0.1022,0.115,0.0744,0.074,0.074,0.0739,0.0739,0.0739,-0.0367,-0.0397,-0.0385,-0.0445,-0.049,-0.0554,-0.0602,-0.063,-0.0664,-0.0636,-0.0591,-0.042,-0.0064,0.0289,0.0383,0.0733,0.0724,0.0908,0.0961,0.0975,0.1111,0.0655,0.0681,0.068,0.0679,0.0678,0.0678,0,-0.0411,-0.0435,-0.0487,-0.054,-0.0602,-0.0605,-0.0672,-0.0699,-0.0753,-0.0666,-0.0626,-0.0077,0.022,0.0575,0.0996,0.1163,0.1236,0.1254,0.1377,0.1447,0.1095,0.1144,0.1224,0.1223,0.1223,0.1223,0.1223,0.1223,-0.0431,-0.0479,-0.0505,-0.0611,-0.0654,-0.0719,-0.0757,-0.0797,-0.0728,-0.0504,-0.0137,0.0161,0.0754,0.1203,0.1555,0.1581,0.1773,0.171,0.1796,0.1623,0.1598,0.1573,0.164,0.1822,0.1822,0.2191,0.2195,0.2197]}],[{"header":{"parameterUnit":"m.s-1","parameterCategory":2,"la1":30.2991,"la2":30.254,"lo1":-89.0895,"lo2":-89.0444,"dy":0.0017,"dx":0.0017,"nx":28,"ny":28,"refTime":"2024-08-15T21:00:00:Z","depth":"2","parameterNumber":2,"parameterNumberName":"U-component_of_CURRENTS"},"data":[0,0,0,0,0,0,0,0,0,0,0,0,0,0,0,0,0,0,0,0,0,0,0,0,0,0,0,0,0,0,0,0,0,0,0,0,0,0,0,0,0,0,0,0,0,0,0,0,0,0,0,0,0,0,0,0,0,0,-0.1861,-0.1862,0,-0.1989,-0.1991,-0.1992,-0.2051,-0.2051,-0.2051,-0.2051,-0.2321,-0.2328,-0.2335,0,0,0,0,0,0,0,0,0,0,0,0,0,-0.1796,-0.1796,-0.1861,-0.1863,-0.1864,-0.1989,-0.1991,-0.1992,-0.2051,-0.2051,-0.2051,-0.2051,-0.2319,-0.2327,-0.2335,0,0,0,0,0,0,0,0,0,0,0,0,0,-0.1861,-0.1796,-0.186,-0.191,-0.1916,-0.1989,-0.1991,-0.1993,-0.2051,-0.2051,-0.2051,-0.2051,-0.2316,-0.2326,-0.2337,-0.2399,0,0,-0.2369,-0.2374,0,0,0,0,0,0,0,0,-0.1858,-0.1863,-0.1901,-0.1907,-0.1914,-0.2006,-0.2067,-0.2136,-0.2051,-0.1997,-0.2051,-0.2051,-0.223,-0.2248,-0.2266,-0.2412,-0.2424,-0.237,-0.2377,-0.2381,-0.2384,0,0,0,0,0,0,0,-0.1853,-0.1859,-0.1909,-0.1903,-0.1911,-0.1971,-0.1979,-0.208,-0.2112,-0.2002,-0.2007,-0.2025,-0.2234,-0.2256,-0.2274,-0.2428,-0.237,-0.2379,-0.2386,-0.239,-0.2684,-0.2686,0,0,0,0,0,0,-0.1834,-0.1854,-0.1905,-0.1913,-0.1888,-0.1972,-0.1981,-0.1975,-0.2108,-0.2128,-0.2025,-0.2027,-0.2238,-0.2261,-0.2284,-0.2446,-0.2381,-0.2391,-0.2397,-0.2683,-0.2685,-0.2686,0,0,0,0,0,0,-0.1832,-0.1837,-0.19,-0.189,-0.1903,-0.1972,-0.1965,-0.1977,-0.2049,-0.2124,-0.2147,-0.209,-0.2239,-0.2269,-0.2432,-0.2454,-0.2396,-0.2405,-0.2681,-0.2684,-0.2686,-0.2721,0,0,0,0,0,0,-0.1829,-0.1834,-0.1856,-0.1888,-0.1903,-0.1954,-0.1966,-0.198,-0.2058,-0.2064,-0.2188,-0.2209,-0.2241,-0.2416,-0.2442,-0.2468,-0.2414,-0.2679,-0.2682,-0.2685,-0.2718,-0.2724,-0.2729,0,0,0,0,0,-0.1826,-0.1853,-0.1856,-0.1865,-0.1918,-0.1955,-0.1969,-0.2018,-0.2061,-0.2086,-0.2201,-0.2208,-0.2448,-0.2429,-0.2459,-0.2487,-0.2678,-0.2681,-0.2685,-0.2715,-0.2723,-0.2729,0,0,0,0,0,0,-0.1842,-0.1862,-0.1866,-0.1899,-0.1927,-0.1966,-0.2006,-0.2053,-0.2161,-0.2177,-0.2272,-0.2303,-0.2435,-0.247,-0.2445,-0.2573,-0.2547,-0.2556,-0.2559,-0.2567,-0.2573,-0.2559,-0.2423,0,0,0,0,0,-0.1851,-0.1871,-0.1892,-0.1919,-0.193,-0.1981,-0.202,-0.2037,-0.2121,-0.2168,-0.2273,-0.2369,-0.2462,-0.2528,-0.26,-0.2714,-0.2656,-0.2734,-0.274,-0.2744,-0.2751,-0.2677,-0.2675,-0.2697,-0.2697,-0.2697,0,0,-0.1871,-0.1881,-0.1899,-0.1925,-0.1948,-0.1985,-0.2004,-0.2042,-0.2131,-0.2185,-0.2363,-0.2409,-0.2499,-0.26,-0.2658,-0.2644,-0.2705,-0.2749,-0.2752,-0.2756,-0.268,-0.2677,-0.2675,-0.2699,-0.2699,-0.2698,0,0,-0.1905,-0.1914,-0.194,-0.1952,-0.1978,-0.2009,-0.2035,-0.2095,-0.218,-0.2333,-0.2377,-0.2455,-0.2635,-0.2668,-0.272,-0.2812,-0.2737,-0.2817,-0.2847,-0.2776,-0.2772,-0.2768,-0.2666,-0.2653,-0.2819,-0.2819,-0.2819,0,-0.1932,-0.1952,-0.1959,-0.1971,-0.2004,-0.2032,-0.2072,-0.2163,-0.2289,-0.2378,-0.2396,-0.2593,-0.2665,-0.2771,-0.2789,-0.2826,-0.275,-0.2817,-0.2779,-0.2774,-0.277,-0.2666,-0.2651,-0.2821,-0.2821,-0.2821,-0.282,0,-0.1961,-0.1992,-0.2003,-0.2034,-0.2072,-0.2096,-0.2184,-0.2279,-0.239,-0.2475,-0.2622,-0.2686,-0.2779,-0.2803,-0.2848,-0.2852,-0.2794,-0.2789,-0.2752,-0.2769,-0.2659,-0.2643,-0.2824,-0.2823,-0.2823,-0.2822,0,0,-0.1982,-0.2022,-0.2026,-0.205,-0.2098,-0.2124,-0.2279,-0.2416,-0.2497,-0.2635,-0.2719,-0.2888,-0.2863,-0.2913,-0.2916,-0.2874,-0.278,-0.282,-0.2815,-0.2702,-0.2574,-0.2494,-0.2467,-0.2745,-0.2744,-0.2742,-0.2498,0,-0.201,-0.2055,-0.2076,-0.2145,-0.2181,-0.224,-0.2382,-0.2504,-0.2601,-0.268,-0.2774,-0.2841,-0.2926,-0.2896,-0.2887,-0.2797,-0.2743,-0.2844,-0.259,-0.2583,-0.2496,-0.2449,-0.2315,-0.2083,-0.2482,-0.2479,-0.2477,0,-0.2022,-0.2066,-0.2135,-0.2213,-0.2231,-0.2278,-0.2415,-0.253,-0.266,-0.2722,-0.278,-0.2805,-0.2827,-0.2824,-0.2743,-0.2791,-0.2697,-0.2624,-0.2612,-0.2517,-0.2473,-0.2139,-0.2038,-0.2449,-0.2451,-0.2453,-0.2455,0,-0.2026,-0.2095,-0.2162,-0.2178,-0.2284,-0.2346,-0.2414,-0.255,-0.2605,-0.2679,-0.2631,-0.2722,-0.2659,-0.2625,-0.2574,-0.2617,-0.2392,-0.2423,-0.227,-0.2261,-0.2091,-0.2071,-0.2318,-0.2318,-0.2319,-0.232,-0.232,0,-0.204,-0.2074,-0.2159,-0.2182,-0.2255,-0.2336,-0.2376,-0.2476,-0.2498,-0.2505,-0.2603,-0.2549,-0.2591,-0.2507,-0.2487,-0.2327,-0.2337,-0.2251,-0.2191,-0.2099,-0.2084,-0.2376,-0.2386,-0.231,-0.2313,-0.2314,-0.2316,0,-0.2006,-0.2069,-0.2105,-0.2211,-0.2244,-0.2276,-0.2284,-0.229,-0.2353,-0.2301,-0.2305,-0.235,-0.2283,-0.2286,-0.2167,-0.216,-0.2048,-0.1982,-0.1867,-0.18,-0.1978,-0.1993,-0.1768,-0.1763,-0.1759,-0.1755,-0.1752,0,-0.1978,-0.2018,-0.2081,-0.2095,-0.2123,-0.216,-0.2177,-0.2222,-0.2187,-0.2197,-0.2143,-0.2083,-0.205,-0.1863,-0.1822,-0.1715,-0.1856,-0.1536,-0.1634,-0.1956,-0.192,-0.1942,-0.1962,-0.1397,-0.1391,-0.1387,-0.1383,0,-0.1928,-0.1946,-0.1979,-0.201,-0.2,-0.1963,-0.1971,-0.1917,-0.1975,-0.193,-0.1892,-0.1862,-0.172,-0.158,-0.1455,-0.1413,-0.1566,-0.1438,-0.1742,-0.1591,-0.1596,-0.1566,-0.1599,-0.1342,-0.1346,-0.1349,-0.1352,-0.1353,-0.1842,-0.1842,-0.1889,-0.1884,-0.1864,-0.1784,-0.1703,-0.1704,-0.1633,-0.1595,-0.1647,-0.1554,-0.1516,-0.1265,-0.1164,-0.1094,-0.1226,-0.1213,-0.1231,-0.1253,-0.1287,-0.1289,-0.098,-0.0982,-0.0984,-0.0985,-0.0987,0,-0.1745,-0.1763,-0.1775,-0.1721,-0.1609,-0.1655,-0.1577,-0.1482,-0.1385,-0.1393,-0.1353,-0.1172,-0.1041,-0.101,-0.0816,-0.0769,-0.0804,-0.0761,-0.0824,-0.0863,-0.0898,-0.092,-0.0512,-0.0511,-0.0509,-0.0508,0,0,-0.1698,-0.1664,-0.1672,-0.1471,-0.1438,-0.1248,-0.1173,-0.111,-0.1072,-0.1009,-0.0969,-0.1023,-0.0992,-0.0766,-0.069,-0.057,-0.0723,-0.0539,-0.0919,-0.1032,-0.1067,-0.1151,-0.1227,0,0,0,0,0]},{"header":{"parameterUnit":"m.s-1","parameterCategory":2,"la1":30.2991,"la2":30.254,"lo1":-89.0895,"lo2":-89.0444,"dy":0.0017,"dx":0.0017,"nx":28,"ny":28,"refTime":"2024-08-15T21:00:00:Z","depth":"2","parameterNumber":3,"parameterNumberName":"V-component_of_CURRENTS"},"data":[0,0,0,0,0,0,0,0,0,0,0,0,0,0,0,0,0,0,0,0,0,0,0,0,0,0,0,0,0,0,0,0,0,0,0,0,0,0,0,0,0,0,0,0,0,0,0,0,0,0,0,0,0,0,0,0,0,0,-0.0287,-0.0287,0,-0.0292,-0.0291,-0.0291,-0.0229,-0.0228,-0.0226,-0.0225,0.0069,0.0075,0.0082,0,0,0,0,0,0,0,0,0,0,0,0,0,-0.0261,-0.0261,-0.0286,-0.0287,-0.0287,-0.0292,-0.0291,-0.0291,-0.0229,-0.0228,-0.0226,-0.0224,0.0067,0.0074,0.0082,0,0,0,0,0,0,0,0,0,0,0,0,0,-0.0267,-0.0261,-0.0286,-0.0259,-0.0257,-0.0292,-0.0291,-0.0291,-0.023,-0.0228,-0.0225,-0.0224,0.0064,0.0074,0.0083,0.0102,0,0,0.0113,0.0117,0,0,0,0,0,0,0,0,-0.0266,-0.0267,-0.0263,-0.0261,-0.0259,-0.026,-0.0175,-0.0146,-0.023,-0.0237,-0.0225,-0.0223,-0.0017,-0.0001,-0.0006,0.0116,0.0128,0.0114,0.012,0.0124,0.0127,0,0,0,0,0,0,0,-0.0266,-0.0267,-0.0285,-0.0264,-0.0261,-0.026,-0.0258,-0.017,-0.013,-0.0236,-0.0232,-0.0239,-0.0013,-0.0016,0.0002,0.0133,0.0114,0.0123,0.0129,0.0132,0.0391,0.0392,0,0,0,0,0,0,-0.0273,-0.0266,-0.0285,-0.0286,-0.0261,-0.0263,-0.026,-0.0259,-0.0138,-0.0121,-0.0241,-0.0236,-0.0034,-0.0009,0.0014,0.0131,0.0124,0.0133,0.0139,0.039,0.0391,0.0393,0,0,0,0,0,0,-0.0272,-0.0274,-0.0285,-0.0279,-0.0281,-0.0265,-0.0265,-0.0261,-0.023,-0.0145,-0.0121,-0.0211,-0.0031,-0.0,0.0132,0.014,0.0138,0.0147,0.0389,0.0391,0.0392,0.0311,0,0,0,0,0,0,-0.0271,-0.0274,-0.0266,-0.0279,-0.0281,-0.0303,-0.0268,-0.0262,-0.0241,-0.0234,-0.0112,-0.0086,-0.0027,0.0116,0.0141,0.0154,0.0154,0.0388,0.039,0.0392,0.0313,0.031,0.0308,0,0,0,0,0,-0.027,-0.0276,-0.0265,-0.0267,-0.0274,-0.0304,-0.0305,-0.0285,-0.0241,-0.0244,-0.0132,-0.0088,0.0145,0.0126,0.0155,0.017,0.0387,0.0389,0.0391,0.0314,0.0311,0.0308,0,0,0,0,0,0,-0.0266,-0.0271,-0.0259,-0.0266,-0.0282,-0.0295,-0.0293,-0.0272,-0.0195,-0.0168,-0.006,-0.0026,0.008,0.0146,0.0122,0.025,0.0268,0.0276,0.0199,0.0197,0.0194,0.0177,0.0162,0,0,0,0,0,-0.0263,-0.0264,-0.0277,-0.0285,-0.0287,-0.0281,-0.0282,-0.028,-0.0227,-0.0194,-0.0105,0.0003,0.0101,0.017,0.0247,0.0337,0.0353,0.0362,0.0359,0.0356,0.0363,0.0428,0.0431,0.04,0.04,0.04,0,0,-0.0272,-0.027,-0.0273,-0.0284,-0.0285,-0.0312,-0.0274,-0.029,-0.0281,-0.0167,-0.0091,-0.0003,0.0122,0.0205,0.0259,0.0273,0.0356,0.0359,0.0356,0.0365,0.0431,0.0434,0.0436,0.0402,0.0401,0.0401,0,0,-0.0301,-0.0278,-0.0291,-0.031,-0.0324,-0.0326,-0.0323,-0.0322,-0.0278,-0.0207,-0.0123,-0.0013,0.0126,0.0207,0.0275,0.0316,0.0332,0.0331,0.0319,0.0382,0.0384,0.0387,0.0321,0.032,0.0339,0.0339,0.0339,0,-0.0306,-0.033,-0.0305,-0.0333,-0.0356,-0.0327,-0.0368,-0.0328,-0.028,-0.0219,-0.0185,0.0032,0.0129,0.0259,0.0263,0.031,0.0302,0.0316,0.0375,0.0379,0.0383,0.0317,0.0316,0.0335,0.0336,0.0336,0.0336,0,-0.0361,-0.038,-0.0392,-0.0411,-0.0426,-0.0466,-0.0432,-0.0403,-0.0333,-0.027,-0.0125,0.0004,0.0138,0.0175,0.0241,0.0321,0.0283,0.035,0.0372,0.0381,0.031,0.031,0.033,0.0331,0.0332,0.0333,0,0,-0.0393,-0.0423,-0.0432,-0.0459,-0.048,-0.0507,-0.0475,-0.043,-0.0378,-0.0268,-0.0191,-0.0,0.0084,0.0165,0.0253,0.0316,0.0307,0.0337,0.0342,0.0249,0.0342,0.0401,0.0405,0.0384,0.0386,0.0387,0.0245,0,-0.0449,-0.0517,-0.0516,-0.0589,-0.0628,-0.0601,-0.0567,-0.0509,-0.0419,-0.0334,-0.0148,-0.0035,0.0082,0.013,0.0224,0.0284,0.0319,0.0333,0.0369,0.0367,0.0405,0.0415,0.0436,0.0324,0.0245,0.0245,0.0245,0,-0.0513,-0.0553,-0.063,-0.0667,-0.0676,-0.0703,-0.0667,-0.0638,-0.0487,-0.0401,-0.0244,-0.0118,0.0012,0.0096,0.0236,0.0232,0.0284,0.033,0.0328,0.0425,0.0433,0.0326,0.0327,0.0245,0.0245,0.0245,0.0245,0,-0.0557,-0.0635,-0.0693,-0.0721,-0.0747,-0.0754,-0.0751,-0.0645,-0.0596,-0.046,-0.0419,-0.021,-0.014,-0.0005,0.0156,0.0168,0.0268,0.0295,0.0387,0.0384,0.0437,0.044,0.0393,0.0393,0.0393,0.0394,0.0394,0,-0.0623,-0.0673,-0.0722,-0.076,-0.0819,-0.0809,-0.0809,-0.0764,-0.0679,-0.0604,-0.0453,-0.0361,-0.0152,-0.0036,0.009,0.0245,0.0231,0.0377,0.0388,0.0401,0.0403,0.0395,0.0397,0.0388,0.039,0.0391,0.0392,0,-0.0658,-0.0686,-0.0773,-0.0826,-0.0843,-0.0888,-0.0894,-0.0864,-0.0794,-0.0727,-0.0694,-0.0508,-0.0349,-0.0162,0.0018,0.015,0.0288,0.0353,0.0298,0.0311,0.0335,0.0334,0.036,0.0362,0.0363,0.0364,0.0365,0,-0.0679,-0.0719,-0.0828,-0.0886,-0.0919,-0.0968,-0.0968,-0.092,-0.0884,-0.0773,-0.0736,-0.0591,-0.0409,-0.0166,0.008,0.0259,0.031,0.0374,0.046,0.0341,0.0348,0.0345,0.0343,0.042,0.0421,0.0422,0.0423,0,-0.0725,-0.0756,-0.0834,-0.0949,-0.1005,-0.1044,-0.1048,-0.1041,-0.0945,-0.0884,-0.0744,-0.0617,-0.0355,-0.0081,0.0164,0.0294,0.0348,0.0403,0.0326,0.0468,0.0401,0.0407,0.0402,0.0433,0.0432,0.0432,0.0431,0.0431,-0.0755,-0.0835,-0.0923,-0.1034,-0.1084,-0.1094,-0.1098,-0.1056,-0.0995,-0.0854,-0.0731,-0.0503,-0.0281,0.0115,0.0286,0.0439,0.043,0.0492,0.0487,0.0481,0.0557,0.0503,0.0557,0.0557,0.0557,0.0556,0.0556,0,-0.0813,-0.0881,-0.099,-0.1103,-0.1133,-0.1145,-0.112,-0.1075,-0.0982,-0.0798,-0.0629,-0.034,-0.0046,0.0166,0.0423,0.0559,0.054,0.058,0.0542,0.0533,0.0525,0.0602,0.0614,0.0614,0.0614,0.0614,0,0,-0.0855,-0.0958,-0.1025,-0.1112,-0.1157,-0.1148,-0.1123,-0.1043,-0.09,-0.0707,-0.0503,-0.025,0.0012,0.0203,0.0378,0.0509,0.0478,0.0516,0.0466,0.0394,0.0384,0.0481,0.0593,0,0,0,0,0]}],[{"header":{"parameterUnit":"m.s-1","parameterCategory":2,"la1":30.2991,"la2":30.254,"lo1":-89.0895,"lo2":-89.0444,"dy":0.0017,"dx":0.0017,"nx":28,"ny":28,"refTime":"2024-08-15T21:00:00:Z","depth":"4","parameterNumber":2,"parameterNumberName":"U-component_of_CURRENTS"},"data":[0,0,0,0,0,0,0,0,0,0,0,0,0,0,0,0,0,0,0,0,0,0,0,0,0,0,0,0,0,0,0,0,0,0,0,0,0,0,0,0,0,0,0,0,0,0,0,0,0,0,0,0,0,0,0,0,0,0,-0.1115,-0.1116,0,-0.1218,-0.122,-0.1221,-0.1271,-0.1271,-0.1271,-0.127,-0.1354,-0.1356,-0.1359,0,0,0,0,0,0,0,0,0,0,0,0,0,-0.1068,-0.1068,-0.1115,-0.1116,-0.1117,-0.1218,-0.122,-0.1221,-0.1271,-0.1271,-0.1271,-0.127,-0.1353,-0.1356,-0.1359,0,0,0,0,0,0,0,0,0,0,0,0,0,-0.1123,-0.1068,-0.1114,-0.1152,-0.1156,-0.1218,-0.122,-0.1222,-0.1271,-0.1271,-0.127,-0.127,-0.1352,-0.1356,-0.1359,-0.139,0,0,-0.1371,-0.1372,0,0,0,0,0,0,0,0,-0.112,-0.1125,-0.1145,-0.1149,-0.1154,-0.1229,-0.1234,-0.1276,-0.1271,-0.123,-0.127,-0.127,-0.1309,-0.1316,-0.134,-0.1394,-0.1398,-0.1371,-0.1373,-0.1375,-0.1376,0,0,0,0,0,0,0,-0.1116,-0.1122,-0.1158,-0.1146,-0.1152,-0.12,-0.1207,-0.1243,-0.1272,-0.1234,-0.1237,-0.1245,-0.1311,-0.1337,-0.1343,-0.1399,-0.1371,-0.1374,-0.1376,-0.1378,-0.1525,-0.1526,0,0,0,0,0,0,-0.1093,-0.1118,-0.1155,-0.1161,-0.1133,-0.1201,-0.1209,-0.1208,-0.1272,-0.1281,-0.1245,-0.1246,-0.1331,-0.1338,-0.1346,-0.1416,-0.1375,-0.1378,-0.138,-0.1523,-0.1525,-0.1527,0,0,0,0,0,0,-0.1091,-0.1095,-0.1151,-0.114,-0.115,-0.1201,-0.12,-0.121,-0.1247,-0.128,-0.1289,-0.1273,-0.1331,-0.134,-0.1397,-0.1418,-0.138,-0.1383,-0.1521,-0.1524,-0.1526,-0.1537,0,0,0,0,0,0,-0.1089,-0.1093,-0.1099,-0.1138,-0.115,-0.1194,-0.1201,-0.1212,-0.125,-0.1254,-0.1307,-0.1314,-0.1331,-0.1392,-0.1401,-0.1422,-0.1386,-0.1519,-0.1522,-0.1525,-0.1534,-0.1539,-0.1544,0,0,0,0,0,-0.1087,-0.1089,-0.1098,-0.1104,-0.1151,-0.1194,-0.1206,-0.1243,-0.1252,-0.1274,-0.1315,-0.1313,-0.1418,-0.1396,-0.1407,-0.143,-0.1517,-0.1521,-0.1525,-0.1532,-0.1538,-0.1544,0,0,0,0,0,0,-0.1077,-0.1095,-0.1106,-0.1115,-0.1155,-0.1202,-0.1224,-0.1251,-0.1303,-0.1309,-0.1339,-0.135,-0.1409,-0.1422,-0.1398,-0.1483,-0.1466,-0.1472,-0.1468,-0.1474,-0.1479,-0.1471,-0.1389,0,0,0,0,0,-0.1074,-0.1077,-0.1112,-0.1123,-0.1137,-0.1185,-0.1211,-0.124,-0.1283,-0.1307,-0.1346,-0.1388,-0.1433,-0.1454,-0.1496,-0.1542,-0.154,-0.1564,-0.1569,-0.1573,-0.1575,-0.1583,-0.1588,-0.1539,-0.1539,-0.1539,0,0,-0.1077,-0.1084,-0.1091,-0.1121,-0.1151,-0.1191,-0.1201,-0.1242,-0.1286,-0.1307,-0.1378,-0.1411,-0.1452,-0.1507,-0.1533,-0.1519,-0.1588,-0.1577,-0.158,-0.1581,-0.1587,-0.1592,-0.1596,-0.1542,-0.1541,-0.1541,0,0,-0.1074,-0.1086,-0.1088,-0.1125,-0.1167,-0.1202,-0.1215,-0.1273,-0.1307,-0.1376,-0.1403,-0.1445,-0.1519,-0.1546,-0.1569,-0.1626,-0.1618,-0.1644,-0.1656,-0.1663,-0.1666,-0.1669,-0.1675,-0.1678,-0.164,-0.164,-0.164,0,-0.108,-0.1086,-0.1102,-0.1124,-0.1159,-0.1206,-0.124,-0.1289,-0.1365,-0.1385,-0.14,-0.1497,-0.1535,-0.1585,-0.1617,-0.1634,-0.1638,-0.1626,-0.1666,-0.1669,-0.1672,-0.1677,-0.168,-0.1641,-0.164,-0.164,-0.164,0,-0.108,-0.1105,-0.1112,-0.1153,-0.1196,-0.1235,-0.1296,-0.1342,-0.1386,-0.1424,-0.1485,-0.1536,-0.1583,-0.1609,-0.164,-0.1682,-0.168,-0.1672,-0.1643,-0.1676,-0.1681,-0.1684,-0.1642,-0.1642,-0.1641,-0.1641,0,0,-0.1046,-0.11,-0.1108,-0.1137,-0.1217,-0.1249,-0.1317,-0.1377,-0.1409,-0.1475,-0.1512,-0.1594,-0.1604,-0.1633,-0.1664,-0.1683,-0.172,-0.1696,-0.1696,-0.1687,-0.1741,-0.1594,-0.1583,-0.1718,-0.1718,-0.1719,-0.1737,0,-0.1048,-0.1081,-0.1118,-0.1185,-0.1214,-0.1284,-0.1342,-0.1404,-0.1455,-0.1506,-0.1542,-0.1598,-0.1618,-0.1647,-0.1668,-0.1722,-0.173,-0.1716,-0.1724,-0.1724,-0.1576,-0.1582,-0.1721,-0.1739,-0.174,-0.174,-0.174,0,-0.1034,-0.1062,-0.111,-0.119,-0.1209,-0.1265,-0.1345,-0.1404,-0.1476,-0.1511,-0.1548,-0.1589,-0.1651,-0.1656,-0.1717,-0.1711,-0.173,-0.1751,-0.1752,-0.1611,-0.1582,-0.1701,-0.1746,-0.1746,-0.1745,-0.1745,-0.1744,0,-0.0982,-0.1058,-0.1092,-0.1127,-0.1224,-0.1262,-0.1319,-0.1396,-0.1441,-0.1514,-0.1555,-0.16,-0.1655,-0.1676,-0.1728,-0.1736,-0.1777,-0.1781,-0.1653,-0.1644,-0.1767,-0.1763,-0.1797,-0.1797,-0.1797,-0.1797,-0.1797,0,-0.0958,-0.099,-0.1073,-0.1098,-0.1145,-0.1231,-0.129,-0.134,-0.1427,-0.1478,-0.1552,-0.1597,-0.167,-0.1705,-0.1725,-0.1687,-0.1763,-0.165,-0.1631,-0.1774,-0.1771,-0.1769,-0.1765,-0.1797,-0.1797,-0.1797,-0.1797,0,-0.0889,-0.0946,-0.0991,-0.109,-0.112,-0.1153,-0.127,-0.1313,-0.1405,-0.1478,-0.151,-0.1615,-0.165,-0.168,-0.1725,-0.1676,-0.1658,-0.1619,-0.1767,-0.1758,-0.1527,-0.1525,-0.1484,-0.1478,-0.1474,-0.147,-0.1467,0,-0.0852,-0.0865,-0.096,-0.099,-0.1038,-0.111,-0.1163,-0.1274,-0.1331,-0.1478,-0.1508,-0.158,-0.163,-0.1567,-0.1605,-0.1568,-0.1552,-0.1532,-0.153,-0.1505,-0.1493,-0.1497,-0.15,-0.146,-0.1459,-0.1458,-0.1457,0,-0.0781,-0.0818,-0.0857,-0.091,-0.0971,-0.1033,-0.1124,-0.1159,-0.13,-0.1403,-0.1461,-0.147,-0.1494,-0.1491,-0.1451,-0.1437,-0.154,-0.1486,-0.1496,-0.1494,-0.1476,-0.1469,-0.1478,-0.1441,-0.1444,-0.1445,-0.1446,0,-0.0724,-0.0728,-0.078,-0.0821,-0.0892,-0.0939,-0.1003,-0.1089,-0.1155,-0.133,-0.1344,-0.1416,-0.1495,-0.1423,-0.1399,-0.1345,-0.1334,-0.1301,-0.1321,-0.1338,-0.1274,-0.1228,-0.1092,0,0,0,0,0,-0.0669,-0.0659,-0.0689,-0.0736,-0.0809,-0.0846,-0.0972,-0.1052,-0.1201,-0.1204,-0.127,-0.1283,-0.1257,-0.1292,-0.1201,-0.1308,-0.1321,-0.1196,-0.1291,-0.1357,-0.1374,-0.1307,0,0,0,0,0,0,-0.0628,-0.0642,-0.0652,-0.0659,-0.0679,-0.0749,-0.0825,-0.093,-0.0949,-0.1097,-0.1087,-0.1183,-0.1167,-0.1271,-0.1165,-0.1168,-0.1197,-0.1233,-0.1229,-0.1347,-0.1363,-0.1377,-0.1314,0,0,0,0,0]},{"header":{"parameterUnit":"m.s-1","parameterCategory":2,"la1":30.2991,"la2":30.254,"lo1":-89.0895,"lo2":-89.0444,"dy":0.0017,"dx":0.0017,"nx":28,"ny":28,"refTime":"2024-08-15T21:00:00:Z","depth":"4","parameterNumber":3,"parameterNumberName":"V-component_of_CURRENTS"},"data":[0,0,0,0,0,0,0,0,0,0,0,0,0,0,0,0,0,0,0,0,0,0,0,0,0,0,0,0,0,0,0,0,0,0,0,0,0,0,0,0,0,0,0,0,0,0,0,0,0,0,0,0,0,0,0,0,0,0,-0.0294,-0.0295,0,-0.0308,-0.0307,-0.0307,-0.0281,-0.028,-0.0279,-0.0279,-0.0195,-0.0194,-0.0192,0,0,0,0,0,0,0,0,0,0,0,0,0,-0.0232,-0.0234,-0.0294,-0.0295,-0.0295,-0.0308,-0.0307,-0.0307,-0.0281,-0.028,-0.0279,-0.0278,-0.0196,-0.0194,-0.0192,0,0,0,0,0,0,0,0,0,0,0,0,0,-0.0251,-0.0234,-0.0294,-0.0285,-0.0285,-0.0308,-0.0307,-0.0307,-0.0281,-0.028,-0.0279,-0.0278,-0.0196,-0.0194,-0.0191,-0.0195,0,0,-0.0184,-0.0183,0,0,0,0,0,0,0,0,-0.025,-0.0253,-0.0286,-0.0286,-0.0285,-0.0294,-0.0255,-0.0266,-0.0281,-0.0279,-0.0279,-0.0278,-0.0222,-0.0217,-0.0219,-0.0191,-0.0188,-0.0184,-0.0182,-0.0181,-0.0181,0,0,0,0,0,0,0,-0.0249,-0.0253,-0.0297,-0.0287,-0.0286,-0.0276,-0.0278,-0.0257,-0.0252,-0.0279,-0.0278,-0.0284,-0.022,-0.0222,-0.0217,-0.0187,-0.0184,-0.0182,-0.018,-0.0179,-0.0172,-0.0173,0,0,0,0,0,0,-0.0255,-0.0252,-0.0296,-0.0297,-0.0268,-0.0278,-0.028,-0.029,-0.0254,-0.0249,-0.0285,-0.0283,-0.0226,-0.022,-0.0214,-0.023,-0.0181,-0.0179,-0.0178,-0.017,-0.0172,-0.0173,0,0,0,0,0,0,-0.0254,-0.0259,-0.0296,-0.0276,-0.0281,-0.0281,-0.0292,-0.0291,-0.0291,-0.026,-0.0252,-0.0287,-0.0225,-0.0217,-0.0204,-0.0226,-0.0178,-0.0176,-0.0169,-0.0171,-0.0173,-0.0253,0,0,0,0,0,0,-0.0252,-0.0258,-0.0268,-0.0277,-0.0282,-0.0314,-0.0293,-0.0292,-0.0298,-0.0295,-0.0259,-0.0251,-0.0224,-0.0208,-0.0201,-0.0222,-0.0174,-0.0167,-0.017,-0.0172,-0.0249,-0.0258,-0.0265,0,0,0,0,0,-0.025,-0.027,-0.0269,-0.0274,-0.0296,-0.0315,-0.0317,-0.0311,-0.0299,-0.0306,-0.0284,-0.0252,-0.0218,-0.0207,-0.0199,-0.0219,-0.0166,-0.0169,-0.0172,-0.0246,-0.0256,-0.0265,0,0,0,0,0,0,-0.0244,-0.027,-0.0268,-0.0294,-0.0305,-0.0311,-0.0323,-0.0316,-0.0307,-0.0301,-0.0264,-0.0255,-0.0255,-0.0226,-0.0215,-0.0225,-0.0189,-0.019,-0.0247,-0.0257,-0.0265,-0.0276,-0.0172,0,0,0,0,0,-0.0251,-0.0273,-0.0289,-0.0309,-0.0318,-0.032,-0.0328,-0.0324,-0.0319,-0.0314,-0.0291,-0.0269,-0.0263,-0.025,-0.0237,-0.0236,-0.018,-0.0246,-0.0254,-0.0261,-0.0266,-0.0225,-0.0229,-0.0183,-0.0183,-0.0183,0,0,-0.0253,-0.0271,-0.0282,-0.0309,-0.0319,-0.0342,-0.0322,-0.0338,-0.0355,-0.0305,-0.0315,-0.0296,-0.0271,-0.0278,-0.0275,-0.0253,-0.0237,-0.0265,-0.0271,-0.0271,-0.0228,-0.0233,-0.0237,-0.0185,-0.0184,-0.0184,0,0,-0.0278,-0.0288,-0.0319,-0.0334,-0.0356,-0.0359,-0.0365,-0.0374,-0.0375,-0.0383,-0.036,-0.0362,-0.0334,-0.0335,-0.0329,-0.0374,-0.0285,-0.036,-0.0403,-0.0364,-0.0367,-0.0369,-0.0266,-0.0258,-0.0359,-0.0359,-0.0359,0,-0.0279,-0.0322,-0.0329,-0.0362,-0.038,-0.0369,-0.0402,-0.0407,-0.0407,-0.0413,-0.0393,-0.0383,-0.037,-0.0387,-0.0409,-0.0394,-0.0323,-0.0368,-0.0374,-0.0375,-0.0376,-0.0269,-0.026,-0.0364,-0.0363,-0.0363,-0.0362,0,-0.0327,-0.0362,-0.0382,-0.0422,-0.0438,-0.0464,-0.0474,-0.0483,-0.0478,-0.0477,-0.0488,-0.0472,-0.0464,-0.0468,-0.0453,-0.0462,-0.039,-0.0391,-0.0347,-0.0385,-0.027,-0.0259,-0.037,-0.0368,-0.0367,-0.0366,0,0,-0.0331,-0.0403,-0.0411,-0.0443,-0.0472,-0.0492,-0.0522,-0.0547,-0.056,-0.0556,-0.0566,-0.0584,-0.0562,-0.0555,-0.0535,-0.0511,-0.046,-0.0453,-0.0449,-0.0346,-0.0305,-0.0285,-0.0269,-0.0447,-0.0447,-0.0447,-0.0207,0,-0.0368,-0.0448,-0.0469,-0.0532,-0.0571,-0.0574,-0.0602,-0.0617,-0.0613,-0.0613,-0.0605,-0.0604,-0.0597,-0.0588,-0.057,-0.049,-0.0439,-0.052,-0.0288,-0.028,-0.0255,-0.0261,-0.0446,-0.0199,-0.0196,-0.0194,-0.0192,0,-0.041,-0.0461,-0.0538,-0.0599,-0.0615,-0.0644,-0.0677,-0.0697,-0.0695,-0.0689,-0.0681,-0.0649,-0.0629,-0.0613,-0.0488,-0.0527,-0.0427,-0.0356,-0.0345,-0.0295,-0.0241,-0.0162,-0.0171,-0.0173,-0.0174,-0.0176,-0.0177,0,-0.0424,-0.0506,-0.0573,-0.0594,-0.0657,-0.0688,-0.071,-0.0723,-0.0734,-0.0725,-0.0706,-0.0675,-0.063,-0.054,-0.0407,-0.0432,-0.0228,-0.0243,-0.0117,-0.011,-0.0161,-0.0162,-0.0145,-0.0145,-0.0146,-0.0147,-0.0147,0,-0.0459,-0.051,-0.0588,-0.0626,-0.0689,-0.0715,-0.076,-0.0775,-0.0774,-0.0769,-0.0741,-0.0699,-0.0608,-0.0484,-0.038,-0.0199,-0.0199,-0.0114,-0.0063,-0.0194,-0.0202,-0.0149,-0.0153,-0.0137,-0.0139,-0.0141,-0.0143,0,-0.047,-0.0524,-0.06,-0.0679,-0.0704,-0.0746,-0.0792,-0.0813,-0.0805,-0.0786,-0.0777,-0.0687,-0.0526,-0.0398,-0.021,-0.0145,0.0008,0.0079,-0.0013,0.0029,0.0107,0.0096,0.0241,0.0243,0.0245,0.0247,0.0248,0,-0.0488,-0.0533,-0.0633,-0.0678,-0.072,-0.0779,-0.0814,-0.0833,-0.0835,-0.0766,-0.0743,-0.0591,-0.0515,-0.0197,-0.0098,0.013,0.0137,0.0232,0.0095,0.0103,0.0139,0.0125,0.0112,0.0251,0.0252,0.0252,0.0253,0,-0.0514,-0.0551,-0.061,-0.0702,-0.076,-0.0812,-0.0851,-0.0849,-0.0838,-0.0824,-0.0673,-0.0533,-0.0333,-0.0156,0.0031,0.0172,0.0159,0.0253,0.0248,0.012,0.0118,0.0148,0.0133,0.026,0.0259,0.0258,0.0258,0,-0.0522,-0.0562,-0.0641,-0.0713,-0.0786,-0.0824,-0.0847,-0.0817,-0.0804,-0.0719,-0.0653,-0.0464,-0.0353,-0.0127,0.0037,0.0179,0.0183,0.0193,0.0191,0.0185,0.0055,0.0038,0.0208,0,0,0,0,0,-0.0528,-0.057,-0.0646,-0.0725,-0.0795,-0.0834,-0.0862,-0.0868,-0.0839,-0.0725,-0.0687,-0.0498,-0.0243,-0.0131,0.002,0.003,0.0176,0.0205,0.0178,0.0299,0.029,0.0143,0,0,0,0,0,0,-0.0533,-0.06,-0.0639,-0.0718,-0.0769,-0.0835,-0.0853,-0.0837,-0.0761,-0.0705,-0.0555,-0.0478,-0.0224,-0.0317,0.0023,0.0063,0.006,0.0326,0.0328,0.0303,0.0296,0.0289,0.0135,0,0,0,0,0]}]]